Wind_Speed
31 31 29 27 27 26 27 26 24 22 20 20 20 18 18 18 17 16 14 12 10 10 9 8 7 8 7 7 7 7 7 8 7 6 6 6 5 5 6 7 7 7 7 7
31 29 28 28 29 29 28 27 25 23 21 21 20 19 18 18 16 15 14 12 11 11 9 9 9 8 8 8 8 8 8 8 8 8 7 7 6 6 6 7 7 8 8 8
29 28 29 30 30 30 29 27 26 24 22 23 22 21 20 19 17 16 15 12 11 11 10 10 9 9 9 9 8 8 9 9 9 8 8 8 7 7 6 7 8 9 9 9
30 30 31 31 30 30 28 26 27 26 26 25 24 23 21 20 19 17 15 14 13 12 11 10 9 9 10 9 9 9 10 9 9 8 8 7 7 7 7 8 9 10 10 10
29 30 31 30 29 29 27 27 27 27 28 27 26 26 23 21 21 18 17 16 14 13 12 11 9 9 9 10 10 10 10 10 9 9 8 8 7 7 8 9 9 10 10 11
30 31 31 30 30 29 28 29 29 30 31 31 27 27 24 22 21 19 18 17 16 13 12 11 9 8 9 10 9 9 10 9 9 9 9 8 8 7 7 8 9 10 10 11
31 32 31 31 32 32 32 32 32 32 33 30 27 29 25 21 21 20 19 18 16 14 12 11 10 9 9 9 9 9 9 9 9 9 9 8 8 8 8 8 9 10 11 11
31 31 31 32 32 32 32 33 33 32 32 28 27 28 23 20 21 20 19 18 15 14 12 10 10 10 10 9 9 9 9 10 9 9 9 8 9 9 9 10 10 10 12 12
30 29 30 31 31 32 32 33 31 32 31 30 29 27 24 22 20 19 17 17 15 14 12 10 11 11 10 10 10 9 9 9 9 9 8 8 8 8 9 11 11 11 12 12
28 29 30 30 31 33 32 31 33 33 32 32 29 27 24 22 20 18 17 17 16 13 12 11 12 12 11 11 10 10 9 9 9 8 8 7 8 8 8 9 11 11 12 12
28 28 28 30 33 33 33 33 33 32 32 31 29 27 24 22 21 18 18 18 16 13 12 12 13 12 11 11 10 10 10 9 9 8 8 8 8 9 9 10 11 12 13 13
28 29 29 30 31 31 32 33 33 33 31 30 29 25 23 22 20 19 17 17 16 14 12 12 12 12 11 12 11 11 11 10 10 10 10 10 9 9 9 10 11 12 12 13
30 30 30 30 31 32 33 33 33 32 31 30 30 26 23 23 21 19 18 16 16 13 12 12 11 12 12 12 13 13 13 12 11 12 12 11 12 11 10 11 12 13 13 13
31 31 32 32 31 32 33 32 32 33 33 31 30 26 24 23 22 20 18 17 17 15 13 13 12 12 12 13 14 13 13 13 13 13 13 13 13 12 12 12 12 13 14 14
32 32 32 32 32 33 33 32 32 33 32 32 29 25 23 23 22 21 19 18 17 16 14 13 12 12 13 13 14 13 13 14 14 14 14 13 14 14 13 13 14 14 14 14
33 33 33 33 34 35 34 34 33 33 32 31 29 26 24 25 23 22 21 19 16 15 14 13 13 13 14 14 13 13 14 14 14 14 14 14 14 14 14 15 16 16 16 16
33 33 33 34 34 34 36 34 34 33 33 31 30 27 26 25 24 23 21 19 17 14 14 14 14 14 14 14 13 14 14 14 14 15 15 15 15 15 15 15 16 17 17 18
33 33 33 34 35 37 34 34 34 33 32 31 30 29 28 27 25 23 22 20 17 15 15 16 16 15 15 15 15 15 15 15 15 15 14 14 14 14 14 15 15 16 16 16
32 31 31 33 36 37 35 35 35 33 33 31 30 31 30 28 25 23 21 19 18 17 17 17 17 17 17 17 16 16 16 15 16 15 14 14 14 14 14 14 14 15 16 16
32 32 32 33 35 37 33 34 34 33 33 31 31 31 30 29 26 24 22 20 19 19 19 18 18 18 17 17 17 17 17 17 16 15 14 14 15 14 14 13 14 15 16 16
32 32 32 32 34 34 32 34 34 35 32 31 30 30 29 30 28 26 24 23 21 20 18 17 17 17 17 17 17 17 16 16 16 16 15 15 15 14 14 14 15 15 15 15
30 31 31 32 33 33 31 34 37 35 31 31 30 29 29 30 30 28 26 24 22 20 18 18 17 17 17 17 17 17 17 17 17 16 16 15 15 15 15 15 15 15 16 16
30 30 30 31 30 29 32 32 33 33 32 32 31 30 30 29 29 29 26 24 22 20 19 18 18 18 18 18 18 18 17 17 17 16 16 15 15 15 15 14 15 15 15 15
29 30 30 31 31 30 32 32 33 32 32 33 32 31 31 31 31 29 27 25 21 20 20 19 19 19 19 19 18 17 17 17 16 15 15 15 15 14 14 14 14 14 15 15
29 29 29 30 31 31 32 32 32 32 32 32 32 32 31 29 29 28 28 25 23 22 20 19 20 19 19 19 19 18 18 17 16 16 16 15 15 15 15 15 15 15 15 16
29 29 29 30 30 31 32 32 32 32 32 31 31 31 31 29 29 27 26 27 25 25 23 21 20 19 19 19 19 19 19 19 18 18 17 16 16 16 16 16 16 17 17 17
Wind_Direction
229 229 229 230 229 227 226 225 223 220 221 231 239 242 246 253 258 260 262 273 285 298 304 300 297 291 288 293 297 298 300 298 298 296 291 286 269 269 264 248 240 241 239 235
228 228 225 225 225 224 224 225 222 221 225 232 238 241 244 253 257 260 264 270 282 293 305 306 294 286 284 284 288 292 295 295 297 298 295 287 272 264 260 245 249 244 237 234
227 225 224 223 223 223 223 223 221 220 221 230 237 238 242 248 251 258 263 271 279 290 296 298 294 285 281 281 284 286 293 296 293 293 294 293 272 257 258 247 248 243 236 234
223 221 222 221 221 221 221 221 221 218 219 224 233 241 240 246 250 257 262 270 278 282 284 284 286 284 283 282 281 281 288 293 285 284 286 283 266 256 255 247 241 239 236 232
221 221 222 221 219 220 217 217 219 216 219 223 230 241 239 242 249 253 259 266 272 276 277 277 276 278 283 282 280 277 282 287 282 279 278 269 259 259 253 240 236 239 237 234
219 219 220 219 217 217 214 215 218 218 221 225 229 240 240 239 247 253 256 258 263 271 268 269 271 273 282 282 280 280 285 285 281 277 274 262 256 255 243 234 233 235 237 235
219 219 218 216 216 215 214 216 218 220 225 230 231 238 243 243 246 250 253 254 260 264 264 265 271 273 281 283 280 281 284 282 277 271 265 258 257 251 239 231 230 234 238 233
219 218 218 217 216 216 217 218 221 224 228 232 232 238 242 242 243 245 249 248 254 259 256 259 267 269 272 276 277 281 281 278 275 270 266 264 263 254 241 235 235 239 238 234
218 217 217 218 216 215 215 218 222 225 228 231 233 236 237 237 238 240 244 244 250 255 252 249 255 260 263 268 272 277 277 274 274 269 267 270 267 257 243 241 239 237 233 233
219 216 215 214 214 214 215 217 220 224 226 231 233 234 236 234 237 245 247 242 245 250 250 248 251 254 258 264 268 274 273 269 271 269 274 272 264 256 247 246 239 236 233 237
217 216 211 211 211 211 213 214 218 222 226 229 232 231 233 236 241 247 250 243 242 244 250 253 253 251 253 261 264 270 271 265 264 266 271 275 269 262 250 244 241 239 238 239
216 215 211 211 210 209 212 215 218 221 224 227 232 231 230 234 240 242 247 246 245 246 249 252 251 249 251 259 265 268 266 264 264 265 269 271 271 269 257 247 244 241 239 242
214 214 211 208 209 209 209 213 218 221 224 226 230 230 230 235 236 239 245 247 243 240 246 249 250 250 252 256 261 265 265 265 266 267 268 268 269 268 261 252 248 247 244 243
215 216 214 211 209 211 211 212 216 220 223 226 229 229 229 235 235 237 239 239 239 241 249 251 252 255 256 260 258 261 264 265 265 265 267 267 268 267 262 253 251 250 246 245
216 217 215 213 211 211 212 214 217 220 223 227 228 228 225 230 230 230 232 238 244 248 250 255 258 259 260 261 256 259 263 265 264 263 264 266 267 266 261 253 250 248 246 246
218 217 214 213 212 213 214 213 215 220 222 225 226 225 221 226 230 231 232 239 245 246 251 257 258 259 259 260 260 262 265 267 264 261 262 262 264 264 261 253 249 247 245 247
221 219 216 214 215 216 217 215 217 218 221 224 225 223 221 226 229 232 237 239 244 248 256 259 258 258 256 258 260 262 265 266 265 265 264 263 264 260 257 257 252 248 249 250
221 218 219 217 217 220 218 218 220 221 221 223 223 221 222 229 231 233 237 241 246 253 259 260 257 256 255 256 260 264 265 265 263 263 265 264 261 257 254 257 256 251 249 250
219 220 221 220 220 222 219 219 221 223 222 223 223 222 223 228 231 233 236 240 243 250 257 260 256 255 256 257 259 263 265 269 266 262 263 262 259 259 261 263 258 253 252 254
221 221 222 221 222 221 218 220 221 222 222 223 224 221 222 227 233 237 242 243 248 252 252 252 251 252 254 257 260 264 266 268 267 261 259 258 257 255 259 262 261 255 253 253
220 221 221 222 223 221 217 216 218 221 220 221 224 224 228 231 233 237 241 245 250 250 251 250 252 254 256 258 261 264 263 265 266 262 260 257 256 256 258 261 260 258 257 257
220 220 220 221 222 220 218 216 218 220 220 221 223 226 231 234 233 234 239 246 250 247 251 252 253 256 258 260 262 263 262 262 263 261 259 257 256 259 261 263 264 261 259 259
219 218 218 220 221 219 219 219 219 220 221 222 224 227 233 232 236 238 241 246 249 252 253 254 253 254 257 260 263 262 260 258 258 257 257 257 257 259 262 264 265 264 260 260
218 218 219 220 219 218 218 219 218 219 222 224 226 228 232 234 236 239 243 245 247 249 252 256 257 255 256 258 260 261 257 256 257 259 259 260 259 261 262 264 266 266 265 266
219 222 223 222 219 219 217 219 219 220 222 225 225 226 230 234 236 239 239 241 246 249 253 254 256 255 255 256 258 257 257 254 254 257 260 262 261 261 261 263 266 267 269 267
217 219 222 223 223 222 221 221 220 220 223 223 224 225 228 231 234 235 236 239 244 248 250 252 253 255 256 256 255 254 256 252 253 254 257 258 260 261 262 264 265 266 268 268
Height
5847 5852 5856 5861 5865 5868 5870 5873 5876 5879 5881 5882 5883 5885 5886 5887 5888 5890 5891 5892 5892 5893 5893 5893 5893 5893 5893 5892 5892 5892 5891 5891 5891 5890 5890 5890 5890 5890 5890 5891 5892 5893 5894 5895
5841 5846 5852 5854 5857 5861 5864 5868 5872 5875 5877 5878 5879 5881 5882 5883 5885 5887 5888 5889 5890 5891 5891 5891 5891 5891 5891 5890 5890 5890 5889 5889 5888 5888 5888 5887 5887 5887 5888 5889 5890 5891 5892 5893
5836 5842 5844 5848 5851 5855 5859 5864 5868 5871 5872 5873 5875 5877 5879 5880 5882 5883 5885 5886 5888 5888 5889 5889 5889 5889 5889 5889 5888 5887 5887 5886 5886 5886 5886 5885 5885 5885 5886 5887 5888 5889 5890 5891
5829 5834 5837 5841 5846 5850 5855 5860 5863 5865 5867 5868 5871 5872 5875 5876 5878 5880 5881 5883 5885 5886 5887 5887 5887 5887 5887 5886 5886 5885 5885 5884 5883 5883 5883 5883 5883 5883 5884 5884 5885 5886 5887 5888
5824 5828 5832 5836 5842 5846 5851 5855 5857 5859 5861 5864 5866 5868 5871 5873 5874 5877 5878 5880 5882 5883 5884 5884 5884 5884 5884 5884 5883 5883 5882 5881 5881 5880 5880 5880 5880 5881 5881 5882 5883 5884 5885 5886
5818 5821 5826 5832 5836 5841 5845 5848 5851 5853 5855 5858 5862 5864 5867 5869 5871 5873 5875 5877 5878 5880 5881 5881 5881 5882 5882 5881 5881 5880 5880 5879 5878 5878 5877 5877 5878 5878 5878 5879 5880 5881 5882 5883
5811 5815 5820 5825 5829 5834 5838 5842 5845 5848 5850 5854 5859 5859 5863 5866 5868 5869 5871 5872 5874 5875 5876 5877 5878 5879 5879 5878 5877 5877 5877 5876 5875 5875 5875 5875 5875 5875 5876 5877 5878 5879 5880 5881
5804 5810 5815 5819 5824 5828 5832 5837 5840 5844 5847 5851 5854 5854 5860 5862 5863 5864 5866 5868 5869 5871 5872 5873 5875 5875 5876 5876 5875 5875 5874 5873 5873 5872 5872 5872 5872 5872 5873 5874 5875 5876 5877 5878
5799 5805 5810 5814 5819 5823 5827 5830 5836 5839 5841 5845 5847 5851 5854 5856 5858 5859 5861 5863 5865 5867 5869 5871 5872 5872 5873 5873 5872 5872 5872 5871 5870 5870 5870 5869 5869 5870 5870 5870 5871 5873 5874 5875
5793 5799 5804 5808 5813 5817 5822 5826 5830 5832 5835 5838 5842 5846 5850 5851 5854 5855 5856 5858 5861 5863 5865 5867 5868 5869 5869 5870 5870 5869 5869 5868 5868 5867 5867 5867 5867 5867 5867 5868 5869 5870 5871 5872
5787 5793 5798 5802 5806 5811 5816 5820 5823 5827 5830 5833 5836 5843 5846 5848 5850 5852 5853 5854 5856 5858 5861 5863 5864 5865 5866 5866 5866 5866 5866 5866 5865 5865 5865 5865 5865 5865 5864 5865 5866 5867 5868 5869
5781 5787 5792 5797 5802 5806 5811 5815 5818 5822 5825 5828 5832 5839 5841 5843 5845 5847 5849 5850 5852 5854 5857 5859 5861 5861 5862 5863 5863 5863 5863 5863 5863 5863 5862 5862 5862 5862 5861 5862 5863 5863 5864 5865
5776 5781 5786 5792 5798 5801 5804 5809 5812 5816 5820 5823 5827 5834 5836 5838 5841 5843 5844 5846 5848 5851 5853 5855 5857 5858 5858 5859 5860 5860 5860 5860 5860 5860 5860 5859 5859 5859 5859 5859 5859 5860 5861 5862
5772 5776 5782 5787 5792 5795 5799 5804 5807 5811 5814 5818 5822 5828 5832 5834 5836 5838 5840 5842 5844 5847 5849 5851 5852 5853 5854 5855 5856 5856 5856 5856 5856 5856 5856 5856 5856 5855 5855 5855 5856 5856 5857 5858
5766 5771 5776 5782 5786 5790 5794 5798 5802 5805 5809 5814 5818 5822 5827 5829 5832 5834 5836 5839 5841 5843 5846 5847 5848 5849 5851 5851 5852 5852 5852 5852 5852 5852 5852 5852 5851 5851 5851 5852 5852 5853 5853 5854
5760 5766 5771 5776 5780 5784 5788 5792 5797 5801 5805 5809 5813 5818 5822 5824 5827 5829 5832 5835 5837 5840 5842 5844 5844 5846 5847 5847 5848 5848 5848 5848 5848 5848 5848 5847 5847 5847 5847 5848 5848 5849 5849 5850
5755 5761 5766 5770 5775 5778 5782 5788 5792 5796 5800 5804 5808 5814 5817 5820 5822 5825 5828 5831 5833 5836 5838 5839 5840 5842 5843 5843 5844 5844 5844 5844 5844 5844 5843 5843 5843 5843 5843 5844 5844 5844 5845 5846
5750 5755 5760 5765 5769 5772 5780 5784 5787 5791 5795 5799 5804 5808 5812 5815 5818 5821 5824 5827 5829 5831 5833 5834 5836 5837 5838 5839 5839 5840 5839 5839 5839 5839 5839 5838 5838 5837 5838 5839 5839 5840 5840 5841
5745 5749 5754 5758 5761 5766 5774 5777 5781 5786 5791 5795 5798 5803 5807 5810 5813 5816 5819 5822 5825 5827 5829 5830 5831 5832 5833 5834 5834 5834 5835 5835 5834 5834 5835 5835 5834 5834 5834 5834 5835 5835 5836 5837
5739 5743 5748 5751 5755 5760 5769 5773 5776 5781 5785 5790 5793 5797 5801 5804 5808 5812 5815 5817 5820 5821 5823 5825 5826 5827 5828 5829 5829 5830 5830 5830 5830 5830 5830 5830 5831 5831 5831 5831 5831 5831 5831 5832
5732 5736 5741 5745 5748 5754 5762 5767 5771 5776 5781 5784 5788 5792 5796 5800 5804 5808 5810 5812 5815 5817 5818 5820 5821 5822 5823 5824 5825 5825 5825 5826 5826 5826 5826 5826 5827 5827 5827 5827 5827 5827 5827 5828
5726 5730 5735 5739 5743 5751 5757 5761 5765 5770 5775 5779 5783 5787 5791 5795 5798 5801 5804 5807 5810 5811 5813 5815 5816 5817 5818 5819 5820 5820 5821 5821 5821 5821 5821 5822 5822 5822 5822 5822 5822 5822 5823 5823
5721 5726 5729 5734 5741 5746 5751 5755 5759 5764 5769 5774 5778 5782 5787 5790 5793 5796 5799 5801 5803 5805 5808 5809 5811 5812 5813 5814 5815 5815 5816 5816 5816 5817 5817 5817 5818 5818 5818 5818 5818 5818 5819 5819
5716 5720 5724 5729 5734 5739 5744 5748 5752 5758 5763 5768 5772 5777 5781 5785 5788 5791 5794 5795 5796 5800 5803 5805 5805 5806 5808 5809 5810 5810 5811 5811 5812 5813 5813 5813 5814 5814 5814 5815 5815 5815 5815 5815
5711 5715 5719 5723 5728 5733 5738 5742 5747 5751 5757 5761 5765 5770 5774 5778 5782 5785 5788 5789 5792 5795 5798 5799 5800 5801 5802 5804 5804 5805 5806 5807 5808 5808 5809 5809 5810 5810 5810 5810 5811 5811 5811 5810
5705 5709 5714 5718 5723 5728 5733 5737 5741 5746 5750 5755 5759 5764 5768 5772 5776 5778 5781 5784 5788 5790 5792 5794 5795 5796 5797 5798 5799 5800 5800 5801 5802 5803 5804 5805 5805 5806 5806 5806 5806 5806 5806 5806